Weather History for Ft Riley, KS

Change the Weather History Date:

Thursday, November 1, 2012

  Actual Average (KMHK) Record (KMHK)
Temperature  
Mean Temperature 56 °F 49 °F  
Max Temperature 75 °F 62 °F 77 °F (2012)
Min Temperature 36 °F 36 °F 19 °F (2014)
Degree Days  
Heating Degree Days 10 16  
Month to date heating degree days 16  
Since 1 July heating degree days 415  
Cooling Degree Days 0 0  
Month to date cooling degree days 0  
Year to date cooling degree days 1361  
Growing Degree Days 6 (Base 50)    
Moisture  
Dew Point 40 °F    
Average Humidity 64    
Maximum Humidity 98    
Minimum Humidity 30    
Precipitation  
Precipitation 0.00 in 0.08 in 2.47 in (1998)
Month to date precipitation 0.08  
Year to date precipitation 30.01  
Sea Level Pressure  
Sea Level Pressure 29.98 in    
Wind  
Wind Speed 3 mph (NW)    
Max Wind Speed 9 mph    
Max Gust Speed -    
Visibility 10 miles    
Events      
T = Trace of Precipitation, MM = Missing Value Source: NWS Daily Summary

Daily Weather History Graph

Daily Weather History Graph

Search for Another Location

Airport:

Trip Planner

Search our weather history database for the weather conditions in past years. The results will help you decide how hot, cold, wet, or windy it might be!

Date:

Astronomy

Nov. 01, 2012 Rise Set
Actual Time 7:55 AM CDT 6:25 PM CDT
Civil Twilight 7:27 AM CDT 6:53 PM CDT
Nautical Twilight 6:55 AM CDT 7:24 PM CDT
Astronomical Twilight 6:24 AM CDT 7:56 PM CDT
Moon 8:24 PM CDT (11/1) 10:27 AM CDT (11/1)
Length of Visible Light 11h 26m
Length of Day
10h 30m
Waning Gibbous, 93% of the Moon is Illuminated
Nov 1
Waning Gibbous
Nov 6
Last Quarter
Nov 13
New
Nov 20
First Quarter
Nov 28
Full

Hourly Weather History & Observations

Time (CDT) Temp. Windchill Dew Point Humidity Pressure Visibility Wind Dir Wind Speed Gust Speed Precip Events Conditions
12:55 AM 41.5 °F - 37.4 °F 85% 30.03 in 10.0 mi Calm Calm - N/A   Clear
1:55 AM 40.6 °F 38.6 °F 35.8 °F 83% 30.02 in 10.0 mi SSW 3.5 mph - N/A   Clear
2:55 AM 40.6 °F - 35.4 °F 82% 30.02 in 10.0 mi Calm Calm - N/A   Clear
3:55 AM 38.8 °F 36.5 °F 35.8 °F 89% 30.01 in 10.0 mi SW 3.5 mph - N/A   Clear
4:55 AM 39.6 °F 37.4 °F 34.9 °F 83% 30.00 in 10.0 mi SSW 3.5 mph - N/A   Clear
5:55 AM 38.5 °F - 35.6 °F 89% 30.00 in 10.0 mi Calm Calm - N/A   Clear
6:55 AM 36.7 °F 32.9 °F 36.0 °F 97% 30.02 in 10.0 mi SSW 4.6 mph - N/A   Clear
7:55 AM 37.6 °F - 37.0 °F 98% 30.03 in 10.0 mi Calm Calm - N/A   Clear
8:55 AM 41.4 °F - 40.3 °F 96% 30.04 in 10.0 mi Calm Calm - N/A   Clear
9:55 AM 50.0 °F - 39.7 °F 68% 30.03 in 10.0 mi SW 6.9 mph - N/A   Clear
10:55 AM 59.2 °F - 41.0 °F 51% 30.01 in 10.0 mi WSW 6.9 mph - N/A   Clear
11:55 AM 65.7 °F - 41.2 °F 41% 30.00 in 10.0 mi West 8.1 mph - N/A   Clear
12:55 PM 69.8 °F - 40.3 °F 34% 29.98 in 10.0 mi West 9.2 mph - N/A   Clear
1:55 PM 72.3 °F - 41.7 °F 33% 29.95 in 10.0 mi West 6.9 mph - N/A   Clear
2:55 PM 74.3 °F - 41.2 °F 30% 29.93 in 10.0 mi NNW 4.6 mph - N/A   Clear
3:55 PM 75.2 °F - 41.7 °F 30% 29.92 in 10.0 mi Calm Calm - N/A   Clear
4:55 PM 73.2 °F - 41.9 °F 32% 29.92 in 10.0 mi NNE 6.9 mph - N/A   Clear
5:55 PM 66.6 °F - 43.3 °F 43% 29.93 in 10.0 mi NNE 8.1 mph - N/A   Clear
6:55 PM 61.3 °F - 41.4 °F 48% 29.94 in 10.0 mi NE 4.6 mph - N/A   Clear
7:55 PM 58.1 °F - 42.1 °F 55% 29.95 in 10.0 mi NE 3.5 mph - N/A   Clear
8:55 PM 55.2 °F - 42.1 °F 61% 29.96 in 10.0 mi NE 3.5 mph - N/A   Clear
9:55 PM 50.2 °F - 41.7 °F 73% 29.95 in 10.0 mi NNE 4.6 mph - N/A   Clear
10:55 PM 52.5 °F - 40.6 °F 64% 29.94 in 10.0 mi NNE 5.8 mph - N/A   Clear
11:55 PM 51.8 °F - 40.1 °F 64% 29.94 in 10.0 mi NE 5.8 mph - N/A   Clear